ICND88 LILN-LIRZ

Flight info

Callsign ICND88
Flight time N/A
Altitude 9000
Route SRN DCT ROBAS DCT OSBUL L995 AMTEL Q85 LAKOX
Aircraft DA62/L-SDFGRY/C

Departure

Time 2026-04-25 18:59
Airport Varese-Venegono Airport (LILN)

Arrival

Time N/A
Airport Perugia San Francesco d'Assisi – Umbria International Airport (LIRZ)
Time Latitude Longitude Altitude Speed Heading
2026-04-25 18:49 45.73752 8.89120 1059 ft 0 kts 72°
2026-04-25 18:56 45.73759 8.89128 1059 ft 2 kts
2026-04-25 18:56 45.73773 8.89119 1059 ft 2 kts 316°
2026-04-25 18:56 45.73777 8.89073 1059 ft 7 kts 260°
2026-04-25 18:56 45.73766 8.88969 1058 ft 13 kts 264°
2026-04-25 18:57 45.73795 8.88860 1057 ft 13 kts 354°
2026-04-25 18:57 45.73821 8.88854 1057 ft 0 kts 356°
2026-04-25 18:58 45.73822 8.88854 1057 ft 0 kts 356°
2026-04-25 18:58 45.74292 8.88794 1063 ft 84 kts 355°
2026-04-25 18:58 45.74926 8.88753 1169 ft 94 kts
2026-04-25 18:59 45.76323 8.88490 1540 ft 118 kts 329°
2026-04-25 18:59 45.76727 8.86377 2019 ft 129 kts 242°
2026-04-25 19:00 45.75122 8.85651 2366 ft 140 kts 155°
2026-04-25 19:00 45.74503 8.86664 2575 ft 138 kts 114°
2026-04-25 19:01 45.73607 8.89104 2934 ft 138 kts 129°
2026-04-25 19:01 45.73004 8.90142 3107 ft 139 kts 133°
2026-04-25 19:01 45.72336 8.91168 3286 ft 139 kts 135°
2026-04-25 19:01 45.71695 8.92105 3451 ft 140 kts 136°
2026-04-25 19:02 45.70330 8.94050 3802 ft 140 kts 136°
2026-04-25 19:02 45.69652 8.95015 3974 ft 140 kts 136°
2026-04-25 19:02 45.68956 8.96001 4150 ft 140 kts 136°
2026-04-25 19:03 45.67815 8.97615 4437 ft 141 kts 136°
2026-04-25 19:03 45.66888 8.98926 4670 ft 141 kts 137°
2026-04-25 19:03 45.66187 8.99912 4846 ft 141 kts 137°
2026-04-25 19:04 45.64805 9.01870 5189 ft 142 kts 136°
2026-04-25 19:04 45.64149 9.02876 5358 ft 143 kts 134°
2026-04-25 19:05 45.62844 9.04924 5739 ft 140 kts 134°
2026-04-25 19:05 45.60898 9.07984 5960 ft 157 kts 134°
2026-04-25 19:06 45.60157 9.09150 6040 ft 160 kts 134°
2026-04-25 19:06 45.58580 9.11632 6203 ft 163 kts 134°
2026-04-25 19:06 45.57839 9.12795 6277 ft 164 kts 134°
2026-04-25 19:08 45.54517 9.18011 6602 ft 166 kts 134°
2026-04-25 19:09 45.51289 9.23070 6914 ft 167 kts 134°
2026-04-25 19:10 45.48048 9.28140 7209 ft 168 kts 134°
2026-04-25 19:10 45.47264 9.29363 7284 ft 168 kts 134°
2026-04-25 19:10 45.46473 9.30598 7358 ft 168 kts 133°
2026-04-25 19:10 45.45690 9.31820 7433 ft 168 kts 133°
2026-04-25 19:11 45.44896 9.33062 7510 ft 168 kts 134°
2026-04-25 19:11 45.44113 9.34283 7585 ft 168 kts 134°
2026-04-25 19:11 45.43327 9.35507 7659 ft 168 kts 134°
2026-04-25 19:11 45.42533 9.36742 7734 ft 168 kts 134°
2026-04-25 19:12 45.41743 9.37973 7809 ft 168 kts 134°
2026-04-25 19:12 45.40948 9.39212 7886 ft 168 kts 134°
2026-04-25 19:12 45.40152 9.40450 7962 ft 168 kts 134°
2026-04-25 19:12 45.39363 9.41676 8036 ft 169 kts 134°
2026-04-25 19:13 45.38575 9.42901 8112 ft 169 kts 134°
2026-04-25 19:13 45.37771 9.44149 8187 ft 169 kts 134°
2026-04-25 19:13 45.36978 9.45380 8263 ft 169 kts 134°
2026-04-25 19:13 45.36188 9.46607 8337 ft 169 kts 134°
2026-04-25 19:14 45.35387 9.47850 8414 ft 169 kts 134°
2026-04-25 19:14 45.34859 9.48670 8464 ft 169 kts 134°
2026-04-25 19:14 45.33802 9.50309 8564 ft 169 kts 134°
2026-04-25 19:14 45.32996 9.51556 8640 ft 170 kts 133°
2026-04-25 19:15 45.32203 9.52786 8715 ft 170 kts 134°
2026-04-25 19:15 45.31406 9.54020 8789 ft 170 kts 134°
2026-04-25 19:15 45.30595 9.55274 8812 ft 173 kts 133°
2026-04-25 19:15 45.29776 9.56542 8815 ft 176 kts 133°
2026-04-25 19:16 45.28937 9.57838 8815 ft 178 kts 133°
2026-04-25 19:16 45.28099 9.59134 8815 ft 179 kts 133°
2026-04-25 19:16 45.27254 9.60440 8814 ft 180 kts 133°
2026-04-25 19:16 45.26408 9.61745 8815 ft 181 kts 133°
2026-04-25 19:17 45.25552 9.63066 8815 ft 181 kts 133°
2026-04-25 19:17 45.24699 9.64382 8855 ft 179 kts 133°
2026-04-25 19:17 45.23862 9.65674 8925 ft 176 kts 134°
2026-04-25 19:17 45.23095 9.66855 8992 ft 174 kts 134°
2026-04-25 19:18 45.22281 9.68110 9065 ft 173 kts 134°
2026-04-25 19:18 45.21472 9.69353 9138 ft 172 kts 134°
2026-04-25 19:18 45.20661 9.70601 9212 ft 172 kts 134°
2026-04-25 19:18 45.19849 9.71852 9286 ft 171 kts 134°
2026-04-25 19:19 45.19047 9.73088 9360 ft 171 kts 133°
2026-04-25 19:19 45.18235 9.74341 9435 ft 171 kts 133°
2026-04-25 19:19 45.17431 9.75579 9510 ft 171 kts 133°
2026-04-25 19:19 45.16894 9.76407 9559 ft 171 kts 133°
2026-04-25 19:20 45.15823 9.78057 9659 ft 171 kts 133°
2026-04-25 19:20 45.15015 9.79303 9734 ft 171 kts 133°
2026-04-25 19:20 45.14207 9.80546 9809 ft 171 kts 133°
2026-04-25 19:20 45.13399 9.81788 9884 ft 171 kts 133°
2026-04-25 19:21 45.12597 9.83022 9958 ft 171 kts 133°
2026-04-25 19:21 45.10991 9.85490 10107 ft 172 kts 133°
2026-04-25 19:21 45.10178 9.86740 10182 ft 172 kts 134°
2026-04-25 19:22 45.09362 9.87992 10257 ft 172 kts 134°
2026-04-25 19:22 45.08625 9.89121 10324 ft 173 kts 134°
2026-04-25 19:22 45.06988 9.91631 10474 ft 174 kts 134°
2026-04-25 19:23 45.06165 9.92893 10549 ft 174 kts 134°
2026-04-25 19:23 45.04512 9.95423 10700 ft 176 kts 134°
2026-04-25 19:23 45.03698 9.96669 10774 ft 176 kts 134°
2026-04-25 19:24 45.02917 9.97863 10811 ft 179 kts 134°
2026-04-25 19:24 45.02062 9.99169 10818 ft 182 kts 134°
2026-04-25 19:24 45.00307 10.01850 10817 ft 187 kts 133°
2026-04-25 19:25 44.98604 10.04448 10816 ft 190 kts 133°
2026-04-25 19:25 44.97704 10.05819 10815 ft 191 kts 133°
2026-04-25 19:25 44.96800 10.07197 10815 ft 192 kts 133°
2026-04-25 19:26 44.95897 10.08574 10964 ft 185 kts 133°
2026-04-25 19:26 44.95030 10.09894 11008 ft 186 kts 133°
2026-04-25 19:26 44.94142 10.11246 11039 ft 187 kts 133°
2026-04-25 19:26 44.93272 10.12572 11187 ft 182 kts 133°
2026-04-25 19:27 44.92413 10.13880 11335 ft 179 kts 133°
2026-04-25 19:27 44.91862 10.14716 11431 ft 177 kts 133°
2026-04-25 19:27 44.90744 10.16417 11632 ft 175 kts 133°
2026-04-25 19:27 44.89923 10.17663 11781 ft 174 kts 133°
2026-04-25 19:28 44.89125 10.18874 11923 ft 173 kts 133°
2026-04-25 19:28 44.88313 10.20107 12069 ft 173 kts 133°
2026-04-25 19:28 44.87493 10.21351 12218 ft 172 kts 133°
2026-04-25 19:28 44.86684 10.22576 12364 ft 172 kts 133°
2026-04-25 19:29 44.85870 10.23810 12512 ft 172 kts 133°
2026-04-25 19:29 44.85078 10.25009 12656 ft 172 kts 133°
2026-04-25 19:29 44.84264 10.26240 12805 ft 172 kts 133°
2026-04-25 19:29 44.83450 10.27473 12953 ft 172 kts 133°
2026-04-25 19:30 44.82631 10.28704 13101 ft 172 kts 136°
2026-04-25 19:30 44.81672 10.29745 13255 ft 172 kts 146°
2026-04-25 19:30 44.80685 10.30688 13405 ft 172 kts 148°
2026-04-25 19:30 44.79684 10.31621 13555 ft 172 kts 148°
2026-04-25 19:31 44.78683 10.32544 13704 ft 172 kts 148°
2026-04-25 19:31 44.77685 10.33460 13853 ft 172 kts 148°
2026-04-25 19:31 44.76680 10.34379 14002 ft 173 kts 148°
2026-04-25 19:31 44.75659 10.35311 14154 ft 173 kts 148°
2026-04-25 19:32 44.74649 10.36231 14300 ft 170 kts 148°
2026-04-25 19:32 44.73680 10.37114 14437 ft 164 kts 149°
2026-04-25 19:32 44.72752 10.37960 14575 ft 160 kts 149°
2026-04-25 19:32 44.72109 10.38546 14673 ft 158 kts 149°
2026-04-25 19:33 44.70901 10.39645 14864 ft 154 kts 149°
2026-04-25 19:33 44.70002 10.40463 14992 ft 157 kts 149°
2026-04-25 19:33 44.69051 10.41325 15021 ft 168 kts 149°
2026-04-25 19:33 44.68041 10.42240 15024 ft 177 kts 149°
2026-04-25 19:34 44.66975 10.43206 15022 ft 184 kts 149°
2026-04-25 19:34 44.66028 10.44400 15008 ft 189 kts 117°
2026-04-25 19:34 44.65655 10.46182 15021 ft 189 kts 97°
2026-04-25 19:34 44.65428 10.48010 15018 ft 192 kts 97°
2026-04-25 19:35 44.65191 10.49860 15017 ft 193 kts 97°
2026-04-25 19:35 44.64937 10.51715 15016 ft 195 kts 98°
2026-04-25 19:35 44.64671 10.53592 15016 ft 196 kts 98°
2026-04-25 19:35 44.64399 10.55463 15016 ft 196 kts 98°
2026-04-25 19:36 44.64121 10.57346 15016 ft 197 kts 99°
2026-04-25 19:36 44.63844 10.59214 15016 ft 197 kts 99°
2026-04-25 19:36 44.63564 10.61099 15016 ft 197 kts 99°
2026-04-25 19:36 44.63279 10.63004 15015 ft 197 kts 99°
2026-04-25 19:37 44.62997 10.64888 15016 ft 197 kts 99°
2026-04-25 19:37 44.62716 10.66773 15013 ft 197 kts 99°
2026-04-25 19:37 44.62442 10.68593 15013 ft 197 kts 99°
2026-04-25 19:37 44.62160 10.70472 15013 ft 197 kts 99°
2026-04-25 19:38 44.61874 10.72373 15013 ft 197 kts 99°
2026-04-25 19:38 44.61603 10.74169 15013 ft 197 kts 99°
2026-04-25 19:38 44.61319 10.76049 15013 ft 197 kts 99°
2026-04-25 19:38 44.61037 10.77915 15013 ft 197 kts 99°
2026-04-25 19:39 44.60749 10.79818 15013 ft 197 kts 99°
2026-04-25 19:39 44.60464 10.81705 15013 ft 197 kts 99°
2026-04-25 19:39 44.60180 10.83575 15013 ft 197 kts 99°
2026-04-25 19:39 44.59894 10.85464 15014 ft 197 kts 99°
2026-04-25 19:40 44.59610 10.87328 15014 ft 197 kts 100°
2026-04-25 19:40 44.59322 10.89222 15014 ft 197 kts 100°
2026-04-25 19:40 44.58681 10.90879 15017 ft 198 kts 141°
2026-04-25 19:40 44.57514 10.91874 14997 ft 199 kts 139°
2026-04-25 19:41 44.56926 10.93532 15008 ft 195 kts 93°
2026-04-25 19:41 44.57026 10.95410 14928 ft 189 kts 83°
2026-04-25 19:41 44.57027 10.97247 14747 ft 187 kts 91°
2026-04-25 19:41 44.56950 10.98451 14628 ft 185 kts 94°
2026-04-25 19:42 44.56727 11.00822 14390 ft 182 kts 96°
2026-04-25 19:42 44.56550 11.02515 14218 ft 180 kts 96°
2026-04-25 19:42 44.56367 11.04247 14041 ft 178 kts 97°
2026-04-25 19:42 44.56208 11.05741 13889 ft 179 kts 97°
2026-04-25 19:43 44.56070 11.07036 13764 ft 181 kts 97°
2026-04-25 19:43 44.55880 11.08822 13591 ft 183 kts 97°
2026-04-25 19:43 44.55690 11.10595 13419 ft 184 kts 97°
2026-04-25 19:43 44.55502 11.12354 13249 ft 185 kts 97°
2026-04-25 19:44 44.55309 11.14155 13075 ft 185 kts 97°
2026-04-25 19:44 44.55119 11.15930 12902 ft 185 kts 97°
2026-04-25 19:44 44.54933 11.17656 12734 ft 185 kts 97°
2026-04-25 19:44 44.54733 11.19517 12387 ft 194 kts 97°
2026-04-25 19:45 44.54531 11.21400 11912 ft 199 kts 98°
2026-04-25 19:45 44.54327 11.23278 11680 ft 191 kts 98°
2026-04-25 19:45 44.54162 11.25100 11445 ft 185 kts 95°
2026-04-25 19:45 44.54222 11.26869 11204 ft 179 kts 75°
2026-04-25 19:46 44.54729 11.28396 10970 ft 173 kts 50°
2026-04-25 19:46 44.55627 11.29453 10734 ft 167 kts 24°
2026-04-25 19:46 44.56737 11.29722 10487 ft 159 kts 345°
2026-04-25 19:46 44.57532 11.28808 10242 ft 153 kts 288°
2026-04-25 19:47 44.57092 11.27639 10014 ft 157 kts 198°
2026-04-25 19:47 44.56059 11.28018 9800 ft 162 kts 141°
2026-04-25 19:47 44.55463 11.29320 9568 ft 163 kts 99°
2026-04-25 19:47 44.56042 11.29989 9124 ft 146 kts 281°
2026-04-25 19:48 44.55722 11.29034 9495 ft 96 kts 232°
2026-04-25 19:48 44.55117 11.28378 9256 ft 127 kts 197°
2026-04-25 19:48 44.54211 11.28723 9065 ft 152 kts 139°
2026-04-25 19:48 44.53666 11.30053 8885 ft 164 kts 118°
2026-04-25 19:49 44.52925 11.31263 8681 ft 168 kts 150°
2026-04-25 19:49 44.52203 11.31661 8544 ft 168 kts 174°
2026-04-25 19:49 44.50706 11.31317 8340 ft 163 kts 209°
2026-04-25 19:49 44.49898 11.30244 8118 ft 163 kts 237°
2026-04-25 19:50 44.48885 11.27362 7677 ft 166 kts 245°
2026-04-25 19:50 44.48385 11.25923 7456 ft 166 kts 245°
2026-04-25 19:50 44.47934 11.24426 7231 ft 166 kts 253°
2026-04-25 19:51 44.47707 11.22813 6874 ft 172 kts 271°
2026-04-25 19:51 44.48212 11.21342 6661 ft 173 kts 316°
2026-04-25 19:51 44.49342 11.20815 6438 ft 178 kts
2026-04-25 19:51 44.50446 11.21547 6217 ft 182 kts 45°
2026-04-25 19:52 44.51056 11.23068 6010 ft 180 kts 67°
2026-04-25 19:52 44.51517 11.24667 5777 ft 173 kts 69°
2026-04-25 19:52 44.51951 11.26224 5545 ft 169 kts 69°
2026-04-25 19:52 44.52371 11.27735 5316 ft 165 kts 69°
2026-04-25 19:53 44.52782 11.29227 5091 ft 163 kts 70°
2026-04-25 19:53 44.53145 11.30665 5009 ft 151 kts 82°
2026-04-25 19:53 44.52939 11.31989 5003 ft 131 kts 129°
2026-04-25 19:53 44.52260 11.32638 5004 ft 113 kts 172°
2026-04-25 19:54 44.51518 11.32793 5002 ft 103 kts 178°
2026-04-25 19:54 44.50833 11.32914 4999 ft 96 kts 174°
2026-04-25 19:54 44.50186 11.33173 5020 ft 101 kts 165°
2026-04-25 19:54 44.49742 11.33436 5027 ft 110 kts 160°
2026-04-25 19:55 44.48728 11.33987 5024 ft 120 kts 185°
2026-04-25 19:55 44.47980 11.33491 5024 ft 123 kts 230°
2026-04-25 19:55 44.47739 11.32353 5021 ft 130 kts 274°
2026-04-25 19:55 44.48189 11.31244 4969 ft 140 kts 316°
2026-04-25 19:56 44.48988 11.30453 4858 ft 143 kts 323°
2026-04-25 19:56 44.49861 11.29699 4737 ft 147 kts 332°
2026-04-25 19:56 44.50859 11.29474 4608 ft 154 kts 13°
2026-04-25 19:56 44.51568 11.30576 4497 ft 155 kts 66°
2026-04-25 19:57 44.51631 11.32045 4381 ft 151 kts 104°
2026-04-25 19:57 44.51316 11.33438 4274 ft 150 kts 113°
2026-04-25 19:57 44.50963 11.34819 4164 ft 150 kts 116°
2026-04-25 19:57 44.50554 11.36175 4058 ft 150 kts 118°
2026-04-25 19:58 44.50171 11.37523 3950 ft 150 kts 115°
2026-04-25 19:58 44.49814 11.38922 3844 ft 150 kts 114°
2026-04-25 19:58 44.49456 11.40270 3739 ft 149 kts 114°
2026-04-25 19:58 44.49088 11.41656 3540 ft 154 kts 114°
2026-04-25 19:59 44.48707 11.43081 3346 ft 156 kts 114°
2026-04-25 19:59 44.48328 11.44500 3151 ft 157 kts 114°
2026-04-25 19:59 44.47945 11.45937 3028 ft 153 kts 114°
2026-04-25 19:59 44.47617 11.47187 3008 ft 145 kts 114°
2026-04-25 20:00 44.47300 11.48408 3005 ft 138 kts 114°
2026-04-25 20:00 44.47088 11.49230 3005 ft 133 kts 114°
2026-04-25 20:00 44.46757 11.50793 3001 ft 123 kts 101°
2026-04-25 20:00 44.46829 11.52000 3065 ft 119 kts 83°
2026-04-25 20:01 44.47923 11.52564 3177 ft 108 kts 295°
2026-04-25 20:01 44.47986 11.51462 3004 ft 122 kts 251°
2026-04-25 20:01 44.47926 11.50249 2953 ft 131 kts 270°
2026-04-25 20:02 44.47828 11.48991 2878 ft 131 kts 251°
2026-04-25 20:02 44.47444 11.47886 2895 ft 125 kts 233°
2026-04-25 20:02 44.46925 11.46930 2757 ft 132 kts 234°
2026-04-25 20:02 44.46759 11.45686 2638 ft 140 kts 281°
2026-04-25 20:03 44.47257 11.44504 2581 ft 141 kts 307°
2026-04-25 20:03 44.47963 11.43577 2514 ft 140 kts 317°
2026-04-25 20:03 44.48564 11.42541 2428 ft 134 kts 296°
2026-04-25 20:03 44.48982 11.41477 2280 ft 116 kts 292°
2026-04-25 20:04 44.49343 11.40492 1968 ft 114 kts 291°
2026-04-25 20:04 44.49682 11.39554 1683 ft 114 kts 291°
2026-04-25 20:04 44.50026 11.38594 1274 ft 119 kts 291°
2026-04-25 20:04 44.50393 11.37586 1017 ft 108 kts 291°
2026-04-25 20:05 44.50710 11.36720 958 ft 97 kts 290°
2026-04-25 20:05 44.51013 11.35872 890 ft 96 kts 293°
2026-04-25 20:05 44.51315 11.35034 819 ft 95 kts 292°
2026-04-25 20:05 44.51613 11.34210 740 ft 95 kts 292°
2026-04-25 20:06 44.51910 11.33388 662 ft 94 kts 292°
2026-04-25 20:06 44.52203 11.32580 610 ft 85 kts 293°
2026-04-25 20:06 44.52466 11.31851 492 ft 83 kts 292°
2026-04-25 20:06 44.52723 11.31138 425 ft 82 kts 292°
2026-04-25 20:07 44.52956 11.30436 299 ft 77 kts 290°
2026-04-25 20:07 44.53189 11.29805 118 ft 59 kts 296°
2026-04-25 20:07 44.53339 11.29371 119 ft 43 kts 300°
2026-04-25 20:07 44.53475 11.28997 116 ft 42 kts 301°
2026-04-25 20:08 44.53615 11.28637 113 ft 41 kts 314°
2026-04-25 20:08 44.53736 11.28282 112 ft 38 kts 281°
2026-04-25 20:08 44.53718 11.28038 112 ft 21 kts 198°
2026-04-25 20:08 44.53616 11.28109 112 ft 19 kts 132°